User: anonymous
Location: Coleman
(45.0650°N, 88.0340°W)
Time: 01:23:10
(UTC-05:00)
Language:

Iridium 97 - Orbit

View from above orbital plane
View from above orbital plane
View from above satellite
View from above satellite

Ground track
Ground track

The orbit data is extracted from the following two-line orbital elements,

1 27450U 02031A   14294.28935793  .00000796  00000-0  27709-3 0  4209
2 27450 086.3992 004.3307 0002907 125.0252 235.1217 14.34218893651218
Epoch (UTC): 21 October 2014 06:56:40
Eccentricity: 0.0002907
inclination: 86.3992°
perigee height: 775 km
apogee height: 780 km
right ascension of ascending node: 4.3307°
argument of perigee: 125.0252°
revolutions per day: 14.34218893
mean anomaly at epoch: 235.1217°
orbit number at epoch: 65121

The dashed part of the orbit path shows where the satellite is in the earth's shadow,  

DLR